Location: Cormont
(50.5693°N, 1.7416°E)
Time: 19:01:17
(UTC+00:00)

STARLINK-56 - Pass Details

Date: 21 October 2019
Orbit: 548 x 551 km, 53.0° (Epoch: 14 November)

Event Time Altitude Azimuth Distance (km) Brightness Sun altitude
Rises 18:33:22 0° 279° (W) 2,719 8.9 -17.1°
Reaches altitude 10° 18:35:38 10° 283° (WNW) 1,826 7.5 -17.5°
Maximum altitude 18:39:44 62° 5° (N) 623 3.8 -18.2°
Enters shadow 18:40:59 41° 67° (ENE) 812 4.0 -18.3°
